Location: Saratoga Springs
(43.0831°N, 73.7850°W)
Time: 11:31:54
(UTC-04:00)

Vanguard 3 - Pass Details

Date: 26 April 2024
Orbit: 509 x 3233 km, 33.3° (Epoch: 23 May)

Event Time Altitude Azimuth Distance (km) Brightness Sun altitude
Exits shadow 00:09:22 14° 114° (ESE) 5,370 11.0 -32.4°
Drops below altitude 10° 00:12:03 10° 105° (ESE) 5,531 11.1 -32.5°
Sets 00:17:49 0° 89° (E) 6,122 11.5 -32.7°
